Cosmos 1818 - Orbit

View from above orbital plane
View from above orbital plane
View from above satellite
View from above satellite

Ground track
Ground track

The orbit data is extracted from the following two-line orbital elements,

1 17369U 87011A   13141.97804353 -.00000024  00000-0  28672-4 0  9279
2 17369 065.0124 297.0904 0022017 274.9609 231.7039 14.31260963425771
Epoch (UTC): 21 May 2013 23:28:22
Eccentricity: 0.0022017
inclination: 65.0124°
perigee height: 772 km
apogee height: 803 km
right ascension of ascending node: 297.0904°
argument of perigee: 274.9609°
revolutions per day: 14.31260963
mean anomaly at epoch: 231.7039°
orbit number at epoch: 42577

The dashed part of the orbit path shows where the satellite is in the earth's shadow,  

Developed and maintained by Chris Peat, Heavens-Above GmbH. Please read the updated FAQ before sending e-mail. Imprint. DLR